Vorticity
nan nan nan nan nan nan nan nan nan nan nan nan nan nan nan nan nan nan nan nan nan nan nan nan nan nan nan nan nan nan nan nan nan nan nan nan nan nan nan nan nan nan nan nan nan nan nan nan nan
nan 9 10 9 5 4 8 6 1 7 10 5 9 3 3 4 7 6 1 13 15 7 5 7 6 6 6 7 7 7 6 5 5 5 5 5 5 5 5 4 5 5 5 5 4 4 5 5 nan
nan 8 6 9 4 4 6 3 4 6 5 11 7 7 4 1 8 7 1 14 12 7 8 8 6 4 6 7 6 6 6 6 5 5 5 5 5 5 4 4 5 5 6 6 5 5 6 5 nan
nan 7 9 9 4 2 5 7 15 11 3 14 11 2 6 8 8 4 8 11 8 6 9 7 6 7 4 4 7 6 5 5 5 5 5 6 5 5 5 5 4 5 5 5 6 7 6 5 nan
nan 9 8 5 8 6 3 10 13 10 7 7 11 6 5 4 8 3 8 10 8 7 8 5 5 7 6 5 5 7 7 5 6 6 6 5 6 5 5 5 5 5 6 6 7 7 6 6 nan
nan 8 5 7 5 8 5 2 7 3 8 9 8 8 3 6 5 6 6 6 10 11 7 7 8 6 4 5 5 5 7 7 6 6 6 6 6 6 6 5 5 6 6 6 7 6 6 6 nan
nan 8 6 6 5 6 6 5 5 4 5 7 9 11 1 1 4 9 7 6 8 10 9 6 7 8 8 6 5 6 7 7 7 7 6 7 6 6 6 6 6 6 6 6 6 6 6 6 nan
nan 6 7 7 8 5 5 9 4 8 5 3 10 10 5 1 6 8 6 5 7 7 10 13 8 8 6 9 9 5 5 7 8 8 7 8 8 8 6 6 7 6 6 6 6 6 6 6 nan
nan 8 8 7 7 5 7 6 7 7 5 9 6 7 8 5 2 6 7 7 8 5 8 13 11 7 9 9 8 9 7 7 7 9 8 6 8 9 8 8 8 7 7 7 6 6 6 7 nan
nan 5 7 4 2 6 7 7 6 7 7 6 3 2 5 10 11 8 8 7 7 9 8 9 14 14 10 8 10 9 8 9 8 9 8 6 8 9 9 10 8 6 6 7 6 6 5 3 nan
nan 5 6 5 7 8 5 5 5 6 9 4 3 5 11 13 7 9 10 9 7 6 5 5 7 12 17 14 8 8 8 7 9 9 8 6 6 7 7 8 8 9 7 6 7 6 6 5 nan
nan 10 6 5 6 7 8 4 8 8 4 5 7 14 12 13 6 4 4 4 6 8 5 4 7 8 11 14 15 9 6 7 7 9 8 6 6 7 7 7 8 7 7 8 7 7 7 7 nan
nan 4 5 8 5 6 8 7 11 4 7 8 17 15 11 4 6 7 7 4 3 4 6 7 7 8 7 9 11 13 11 8 8 8 7 6 6 7 7 7 7 7 7 7 7 7 7 7 nan
nan 5 10 7 8 10 10 9 7 4 9 18 16 2 6 5 7 6 5 6 6 6 6 6 7 8 8 7 8 11 13 12 10 8 10 6 5 7 7 8 7 7 7 7 8 7 7 7 nan
nan 9 12 13 16 8 10 9 6 3 13 14 3 5 4 4 6 7 6 6 7 6 5 6 7 8 8 8 10 9 9 12 12 12 10 7 5 6 6 6 7 7 8 7 6 7 7 8 nan
nan 10 8 11 14 14 8 5 7 14 14 3 5 5 3 2 4 5 6 6 6 5 6 7 8 6 7 10 10 8 6 11 13 11 13 11 7 5 6 6 8 8 7 7 7 7 7 8 nan
nan 9 3 5 6 14 6 9 10 15 10 4 4 4 4 4 5 5 5 6 6 7 6 7 7 8 9 11 10 9 9 9 12 13 13 12 10 7 5 6 9 8 7 7 7 7 7 8 nan
nan 6 7 6 2 8 7 8 9 8 7 5 5 4 5 5 4 4 6 7 7 7 7 9 8 7 10 12 10 10 10 8 6 10 12 14 13 8 5 7 9 7 6 7 9 8 6 9 nan
nan 8 6 8 9 5 8 8 8 9 3 6 6 5 5 6 6 5 6 6 7 7 8 8 8 9 11 9 9 8 8 7 8 6 5 14 18 12 5 6 8 8 8 8 6 7 8 5 nan
nan 6 8 8 10 10 11 9 7 7 8 7 5 5 5 6 7 6 7 8 8 8 8 8 8 10 10 8 9 8 8 9 8 8 11 12 12 16 13 4 7 7 7 10 8 3 5 10 nan
nan 9 8 7 9 9 14 8 7 4 5 4 5 6 5 5 6 7 8 9 8 8 8 9 9 10 10 9 10 7 9 8 8 9 9 8 9 16 17 9 4 7 7 9 9 9 5 4 nan
nan 10 7 8 9 11 9 11 11 4 -2 2 5 6 6 7 8 7 6 7 8 10 9 8 8 11 10 11 10 9 8 8 9 7 5 5 8 9 14 19 7 6 8 9 8 8 8 7 nan
nan 11 10 8 7 12 7 7 8 8 0 -0 4 7 8 7 6 6 8 9 10 10 8 8 10 11 12 14 12 11 9 8 8 7 7 9 12 13 9 12 21 10 7 10 10 8 7 6 nan
nan 9 9 13 11 10 13 7 3 8 9 6 5 5 5 7 8 8 8 7 8 8 10 10 12 10 11 14 13 11 10 8 9 9 9 11 9 12 12 9 22 18 7 9 10 10 7 5 nan
nan 6 9 8 11 9 7 6 9 11 8 8 6 7 6 8 8 7 7 8 8 8 11 11 9 9 11 14 14 14 15 16 14 10 9 9 8 12 9 10 13 17 13 11 10 10 9 7 nan
nan 6 5 6 8 5 8 17 11 9 6 6 7 7 7 7 7 8 9 8 7 8 9 11 11 10 11 13 15 16 17 16 15 16 15 12 11 12 10 8 11 8 18 18 5 8 10 9 nan
nan 10 8 8 7 11 11 13 12 2 1 4 3 7 10 7 8 9 10 8 9 10 11 12 10 9 11 16 15 13 14 14 13 16 20 18 16 10 9 5 10 27 22 19 6 7 10 10 nan
nan 5 8 13 13 9 9 6 9 4 4 6 6 8 8 6 7 9 9 8 10 11 11 10 11 10 9 13 16 12 10 13 16 15 13 15 17 14 10 7 10 24 33 22 8 9 11 8 nan
nan 8 11 12 8 9 9 8 13 12 10 7 6 10 7 6 6 7 9 9 9 10 10 10 9 10 11 11 12 14 12 13 15 14 11 15 15 13 14 12 10 4 21 23 23 15 16 15 nan
nan nan nan nan nan nan nan nan nan nan nan nan nan nan nan nan nan nan nan nan nan nan nan nan nan nan nan nan nan nan nan nan nan nan nan nan nan nan nan nan nan nan nan nan nan nan nan nan nan
CAPE
0 0 0 0 0 0 0 0 0 0 0 0 0 0 0 0 0 0 0 543 1872 1517 1517 1703 1766 1977 2100 2207 2160 1981 2082 2153 2064 1994 1905 1921 1965 2049 2130 2297 2435 2564 2532 2111 1883 1890 1721 1617 1563
0 0 0 0 0 0 0 0 0 0 0 0 0 0 0 0 0 166 218 662 1977 1708 1572 1586 1686 1858 2031 2114 2226 2222 2369 2302 2151 2135 2084 2099 2109 2040 2120 2154 2248 2445 2573 2492 2131 1913 1859 1738 1447
0 0 0 0 0 0 0 0 0 0 0 0 0 0 0 0 0 129 107 1706 2135 1913 1767 1677 1646 1752 1906 2036 2177 2273 2394 2217 2109 2136 2263 2274 2281 2221 2068 1973 2169 2374 2646 2612 2158 2210 2148 1515 1263
0 0 0 0 0 0 0 0 0 0 0 0 0 0 0 0 0 0 0 1837 2303 2259 2160 1611 1589 1669 1788 2041 2178 2291 2294 2089 1960 2060 2310 2393 2438 2394 2157 1837 2029 2401 2434 2612 2542 2475 1779 1262 1178
0 0 0 0 0 0 0 0 0 0 0 0 0 0 0 0 0 0 0 0 2294 1998 1784 1530 1459 1546 1681 2013 2225 2325 2296 2062 1933 2019 2193 2338 2463 2404 2047 1808 1955 2218 2303 2373 2228 1947 1366 1128 1111
0 0 0 0 0 0 0 0 0 0 0 0 0 0 0 0 0 0 0 0 195 2340 1766 1583 1591 1554 1587 1733 1982 2167 2174 2063 1952 1970 2093 2252 2281 2160 1956 1827 1866 1928 2029 1970 1770 1468 1198 1061 1039
0 0 0 0 0 0 0 0 0 0 0 0 0 0 0 0 0 0 0 0 0 1685 1995 1731 1605 1579 1543 1540 1653 1925 2055 2028 1974 1987 2014 2137 2093 1974 1907 1866 1821 1779 1820 1678 1466 1205 1043 1022 1011
0 0 0 0 0 0 0 0 0 0 0 0 0 0 0 0 0 0 0 0 0 0 0 1702 1542 1473 1415 1320 1491 1627 1850 1931 1963 1955 2012 2034 1956 1877 1849 1835 1809 1787 1776 1560 1305 1074 956 959 905
0 0 0 0 0 0 0 0 0 0 0 0 0 0 0 0 0 0 0 0 0 0 0 70 2143 1627 1281 1179 1227 1381 1539 1731 1867 1838 1927 1777 1698 1676 1726 1684 1692 1762 1751 1529 1161 959 899 834 710
0 0 0 0 0 0 0 0 0 0 0 0 0 0 0 0 0 0 0 0 0 0 0 0 0 785 1712 1623 1454 1165 1137 1355 1561 1587 1662 1533 1451 1473 1739 1626 1579 1709 1625 1444 1042 849 762 554 405
0 0 0 0 0 0 0 0 0 0 0 0 0 0 0 0 0 0 0 0 0 0 0 0 0 0 20 1408 1715 1096 937 1020 1169 1391 1436 1264 1460 1334 1426 1296 1284 1247 1284 1080 825 611 555 371 244
0 0 0 0 0 0 0 0 0 0 0 0 0 0 0 0 0 0 0 0 0 0 0 0 0 0 0 0 691 1493 1123 982 1003 1341 1472 1558 1444 1274 1268 1138 1094 1169 1070 807 616 493 348 343 271
0 0 0 0 0 0 0 0 0 0 0 0 0 0 0 0 0 0 0 0 0 0 0 0 0 0 0 0 0 160 1325 1169 1059 1019 1514 1712 1641 1389 1092 1034 1021 1121 815 641 420 268 352 294 298
0 0 0 0 0 0 0 0 0 0 0 0 0 0 0 0 0 0 0 0 0 0 0 0 0 0 0 0 0 0 44 1401 1188 1069 1212 1753 1674 1481 1100 1048 1074 1006 828 595 402 317 273 233 190
0 0 0 0 0 0 0 0 0 0 0 0 0 0 0 0 0 0 0 0 0 0 0 0 0 0 0 0 0 0 0 31 1049 1263 1115 1405 1692 1410 1206 1117 1080 1038 822 606 312 196 130 80 176
0 0 0 0 0 0 0 0 0 0 0 0 0 0 0 0 0 0 0 0 0 0 0 0 0 0 0 0 0 0 0 0 33 783 1187 1272 1603 1365 1259 1139 1121 1011 811 596 452 279 255 150 207
0 0 0 0 0 0 0 0 0 0 0 0 0 0 0 0 0 0 0 0 0 0 0 0 0 0 0 0 0 0 0 0 4 491 767 1067 1454 1420 1313 1227 1108 870 883 625 599 360 392 301 310
0 0 0 0 0 0 0 0 0 0 0 0 0 0 0 0 0 0 0 0 0 0 0 0 0 0 0 0 0 0 0 0 0 0 409 701 976 1341 1315 1399 1066 857 911 670 590 545 229 355 492
0 0 0 0 0 0 0 0 0 0 0 0 0 0 0 0 0 0 0 0 0 0 0 0 0 0 0 0 0 0 0 0 0 0 0 58 627 784 1199 1346 1011 1033 945 886 585 501 317 168 15
0 0 0 0 0 0 0 0 0 0 0 0 0 0 0 0 0 0 0 0 0 0 0 0 0 0 0 0 0 1 0 0 0 0 0 0 0 361 856 1218 1135 1130 1126 857 566 454 318 333 56
0 0 0 0 0 0 0 0 0 0 0 0 0 0 0 0 0 0 0 0 0 0 0 0 0 1 1 1 1 2 2 2 0 0 0 0 0 28 520 838 1274 1078 1063 885 605 559 475 433 53
0 0 0 0 0 0 0 0 0 0 0 0 0 0 0 0 0 0 0 0 0 0 0 0 1 0 7 0 1 0 0 1 2 2 0 0 0 0 9 536 893 997 1061 882 654 573 438 443 481
0 0 0 0 0 0 0 0 0 0 0 0 0 0 0 0 0 0 0 0 0 0 0 0 3 0 2 0 7 3 7 2 0 1 2 0 0 0 0 0 339 869 994 983 753 616 504 537 570
0 0 0 0 0 0 0 0 0 0 0 0 0 0 0 0 0 0 0 0 1 0 0 0 7 5 3 10 10 9 14 4 2 1 3 0 0 0 0 0 0 560 1019 929 747 604 621 584 599
0 0 0 0 0 0 0 0 0 0 0 0 0 0 0 0 0 0 0 3 3 4 1 2 6 4 1 10 10 11 9 16 23 18 6 7 0 0 0 0 0 0 352 840 860 779 679 586 483
0 0 0 0 0 0 0 0 0 0 0 0 0 0 1 0 0 0 0 0 3 7 4 3 5 5 7 8 7 13 12 13 9 13 2 1 1 0 0 0 0 5 10 792 516 596 620 421 332
0 0 0 0 0 0 0 0 0 0 0 0 0 0 1 0 2 0 0 0 1 4 2 2 3 5 3 10 6 8 11 11 10 4 3 4 0 0 0 0 0 0 1 344 590 537 406 493 376
0 0 0 0 0 3 0 0 0 0 0 0 0 0 0 0 0 0 0 0 0 2 0 3 4 3 5 1 4 7 8 7 8 6 3 3 2 1 0 0 0 0 144 349 510 503 506 526 480
0 0 1 1 0 12 0 0 0 0 0 0 0 3 0 0 0 0 0 0 0 0 0 1 1 1 1 3 3 5 4 6 8 7 4 4 3 3 1 0 5 2 2 0 155 146 311 480 448
4 17 24 2 0 0 0 0 0 0 0 0 0 0 0 0 0 0 0 0 0 0 0 0 0 0 0 0 0 1 1 2 4 8 8 5 4 4 5 1 0 0 2 2 4 8 4 0 1